Hourly Data Report for October 13, 2003

TORONTO CITY
ONTARIO

43°40'00.000" N
79°24'00.000" W
112.50 m
6158355
71508
XTO

Download Data

Hourly Data (October 2003)
Hourly Data Report for October 13, 2003
TIME
LST
Temp Definition
°C
Dew Point Definition
°C
Rel Hum Definition
%
Precip. Amount Definition
mm

Wind Dir Definition
10's deg

Wind Spd Definition
km/h
Visibility Definition
km
Stn Press Definition
kPa
Hmdx Definition


Wind Chill Definition


Weather Definition


00:00 10.5 7.5 82   LegendMM LegendMM LegendMM 100.04     LegendNANA
01:00 10.0 7.3 83   LegendMM LegendMM LegendMM 100.05     LegendNANA
02:00 10.5 6.9 78   LegendMM LegendMM LegendMM 100.04     LegendNANA
03:00 10.3 6.8 79   LegendMM LegendMM LegendMM 100.07     LegendNANA
04:00 8.8 6.5 85   LegendMM LegendMM LegendMM 100.07     LegendNANA
05:00 9.0 6.8 86   LegendMM LegendMM LegendMM 100.14     LegendNANA
06:00 7.8 6.4 91   LegendMM LegendMM LegendMM 100.15     LegendNANA
07:00 7.8 6.7 93   LegendMM LegendMM LegendMM 100.17     LegendNANA
08:00 10.1 8.3 89   LegendMM LegendMM LegendMM 100.22     LegendNANA
09:00 12.6 8.1 74   LegendMM LegendMM LegendMM 100.24     LegendNANA
10:00 15.2 9.2 67   LegendMM LegendMM LegendMM 100.24     LegendNANA
11:00 16.9 9.4 61   LegendMM LegendMM LegendMM 100.20     LegendNANA
12:00 17.2 9.3 60   LegendMM LegendMM LegendMM 100.18     LegendNANA
13:00 17.9 9.1 56   LegendMM LegendMM LegendMM 100.09     LegendNANA
14:00 17.8 7.2 50   LegendMM LegendMM LegendMM 100.06     LegendNANA
15:00 17.1 5.7 47   LegendMM LegendMM LegendMM 99.98     LegendNANA
16:00 16.9 6.4 50   LegendMM LegendMM LegendMM 99.95     LegendNANA
17:00 15.8 7.2 57   LegendMM LegendMM LegendMM 99.92     LegendNANA
18:00 14.8 8.4 65   LegendMM LegendMM LegendMM 99.92     LegendNANA
19:00 13.0 8.6 75   LegendMM LegendMM LegendMM 99.95     LegendNANA
20:00 12.4 8.5 77   LegendMM LegendMM LegendMM 99.98     LegendNANA
21:00 12.1 8.8 80   LegendMM LegendMM LegendMM 99.98     LegendNANA
22:00 10.5 8.4 87   LegendMM LegendMM LegendMM 99.95     LegendNANA
23:00 10.1 8.6 90   LegendMM LegendMM LegendMM 99.90     LegendNANA

Notes on Data Quality.

Legend

  • E = Estimated
  • M = Missing
  • NA = Not Available*
  • [empty] = Indicates an unobserved value
Date modified: